Westminster, MD

3:14 AM EST on February 24, 2017 (GMT -0500)
Carroll County Regional-Poage

Weather History for KDMW - October, 2012

Change the Weather History Date:

Thursday, October 11, 2012

  Actual Average (KTHV) Record (KTHV)
Temperature  
Mean Temperature 51 °F -  
Max Temperature 60 °F 0 °F 82 °F (2010)
Min Temperature 42 °F - 33 °F (2016)
Degree Days  
Heating Degree Days 14    
Growing Degree Days 1 (Base 50)    
Moisture  
Dew Point 29 °F    
Average Humidity 48    
Maximum Humidity 62    
Minimum Humidity 29    
Precipitation  
Precipitation 0.00 in - - ()
Sea Level Pressure  
Sea Level Pressure 30.20 in    
Wind  
Wind Speed 8 mph (West)    
Max Wind Speed 13 mph    
Max Gust Speed 17 mph    
Visibility 10 miles    
Events      
Averages and records for this station are not official NWS values.
T = Trace of Precipitation, MM = Missing Value Source: NWS Daily Summary

Daily Weather History Graph

Daily Weather History Graph

Search for Another Location

Airport or City:

Trip Planner

Search our weather history database for the weather conditions in past years. The results will help you decide how hot, cold, wet, or windy it might be!

Date:

Astronomy

Oct. 11, 2012 Rise Set
Actual Time 7:14 AM EDT 6:34 PM EDT
Civil Twilight 6:47 AM EDT 7:01 PM EDT
Nautical Twilight 6:16 AM EDT 7:32 PM EDT
Astronomical Twilight 5:45 AM EDT 8:03 PM EDT
Moon 2:51 AM EDT (10/11) 4:08 PM EDT (10/11)
Length of Visible Light 12h 13m
Length of Day
11h 19m
Waning Crescent, 18% of the Moon is Illuminated
Oct 11
Waning Crescent
Oct 15
New
Oct 21
First Quarter
Oct 29
Full
Nov 6
Last Quarter

Hourly Weather History & Observations

Time (EDT) Temp. Windchill Dew Point Humidity Pressure Visibility Wind Dir Wind Speed Gust Speed Precip Events Conditions
12:01 AM 51.8 °F - 37.4 °F 58% 30.09 in 10.0 mi West 8.1 mph - N/A   Mostly Cloudy
12:22 AM 50.0 °F - 37.4 °F 62% 30.09 in 10.0 mi West 6.9 mph - N/A   Scattered Clouds
1:04 AM 50.0 °F - 35.6 °F 58% 30.10 in 10.0 mi West 10.4 mph 16.1 mph N/A   Clear
1:25 AM 50.0 °F - 35.6 °F 58% 30.11 in 10.0 mi West 8.1 mph - N/A   Clear
1:49 AM 50.0 °F - 33.8 °F 54% 30.12 in 10.0 mi West 12.7 mph 17.3 mph N/A   Clear
2:31 AM 48.2 °F - 33.8 °F 58% 30.13 in 10.0 mi WNW 6.9 mph - N/A   Scattered Clouds
2:52 AM 48.2 °F - 33.8 °F 58% 30.13 in 10.0 mi WNW 9.2 mph - N/A   Clear
3:13 AM 48.2 °F - 32.0 °F 54% 30.13 in 10.0 mi WNW 10.4 mph - N/A   Clear
3:34 AM 46.4 °F 41.1 °F 32.0 °F 57% 30.14 in 10.0 mi WNW 11.5 mph 16.1 mph N/A   Scattered Clouds
3:55 AM 46.4 °F 41.9 °F 30.2 °F 53% 30.15 in 10.0 mi WNW 9.2 mph - N/A   Clear
4:16 AM 46.4 °F 42.9 °F 28.4 °F 50% 30.17 in 10.0 mi West 6.9 mph - N/A   Clear
4:37 AM 44.6 °F 41.4 °F 30.2 °F 57% 30.18 in 10.0 mi West 5.8 mph - N/A   Clear
4:58 AM 44.6 °F 39.7 °F 28.4 °F 53% 30.17 in 10.0 mi NW 9.2 mph - N/A   Clear
5:22 AM 44.6 °F 41.4 °F 28.4 °F 53% 30.18 in 10.0 mi WNW 5.8 mph - N/A   Clear
5:43 AM 44.6 °F 40.2 °F 28.4 °F 53% 30.20 in 10.0 mi West 8.1 mph - N/A   Clear
6:04 AM 42.8 °F 38.6 °F 28.4 °F 57% 30.21 in 10.0 mi WNW 6.9 mph - N/A   Clear
6:25 AM 42.8 °F 38.6 °F 28.4 °F 57% 30.22 in 10.0 mi WNW 6.9 mph - N/A   Clear
6:46 AM 42.8 °F 38.0 °F 28.4 °F 57% 30.23 in 10.0 mi WNW 8.1 mph - N/A   Clear
7:07 AM 42.8 °F 38.6 °F 28.4 °F 57% 30.23 in 10.0 mi WNW 6.9 mph - N/A   Clear
7:28 AM 42.8 °F 38.0 °F 28.4 °F 57% 30.24 in 10.0 mi West 8.1 mph - N/A   Clear
7:49 AM 42.8 °F 38.6 °F 28.4 °F 57% 30.24 in 10.0 mi West 6.9 mph - N/A   Clear
8:10 AM 42.8 °F 38.0 °F 28.4 °F 57% 30.25 in 10.0 mi West 8.1 mph - N/A   Clear
8:31 AM 44.6 °F 39.7 °F 28.4 °F 53% 30.26 in 10.0 mi WNW 9.2 mph - N/A   Clear
8:52 AM 44.6 °F 38.8 °F 28.4 °F 53% 30.26 in 10.0 mi WNW 11.5 mph - N/A   Clear
9:16 AM 44.6 °F 38.4 °F 28.4 °F 53% 30.27 in 10.0 mi WNW 12.7 mph - N/A   Clear
9:37 AM 46.4 °F 41.5 °F 28.4 °F 50% 30.28 in 10.0 mi WNW 10.4 mph 17.3 mph N/A   Clear
9:58 AM 46.4 °F 42.4 °F 26.6 °F 46% 30.28 in 10.0 mi NW 8.1 mph - N/A   Clear
10:19 AM 46.4 °F 42.4 °F 26.6 °F 46% 30.27 in 10.0 mi NNW 8.1 mph - N/A   Clear
10:40 AM 48.2 °F - 26.6 °F 43% 30.27 in 10.0 mi NW 10.4 mph - N/A   Clear
11:01 AM 48.2 °F - 24.8 °F 40% 30.27 in 10.0 mi NNW 6.9 mph 16.1 mph N/A   Clear
11:22 AM 50.0 °F - 24.8 °F 37% 30.27 in 10.0 mi WNW 9.2 mph - N/A   Clear
11:43 AM 50.0 °F - 24.8 °F 37% 30.27 in 10.0 mi WNW 6.9 mph - N/A   Clear
12:04 PM 51.8 °F - 24.8 °F 35% 30.27 in 10.0 mi NW 3.5 mph - N/A   Clear
12:25 PM 51.8 °F - 24.8 °F 35% 30.26 in 10.0 mi WNW 5.8 mph - N/A   Clear
12:46 PM 51.8 °F - 24.8 °F 35% 30.25 in 10.0 mi West 4.6 mph - N/A   Clear
1:07 PM 51.8 °F - 24.8 °F 35% 30.25 in 10.0 mi West 6.9 mph - N/A   Clear
1:31 PM 53.6 °F - 24.8 °F 33% 30.24 in 10.0 mi WNW 9.2 mph - N/A   Clear
1:49 PM 53.6 °F - 24.8 °F 33% 30.23 in 10.0 mi Calm Calm - N/A   Clear
2:13 PM 53.6 °F - 24.8 °F 33% 30.22 in 10.0 mi WSW 8.1 mph - N/A   Clear
2:34 PM 55.4 °F - 24.8 °F 31% 30.21 in 10.0 mi West 8.1 mph - N/A   Clear
2:55 PM 55.4 °F - 24.8 °F 31% 30.21 in 10.0 mi Calm Calm - N/A   Clear
3:16 PM 57.2 °F - 24.8 °F 29% 30.20 in 10.0 mi SSW 9.2 mph - N/A   Clear
3:37 PM 57.2 °F - 26.6 °F 31% 30.20 in 10.0 mi WSW 8.1 mph - N/A   Clear
3:58 PM 57.2 °F - 26.6 °F 31% 30.20 in 10.0 mi SSW 4.6 mph - N/A   Clear
4:19 PM 60.8 °F - 28.4 °F 29% 30.20 in 10.0 mi SW 8.1 mph - N/A   Clear
4:40 PM 57.2 °F - 26.6 °F 31% 30.20 in 10.0 mi WSW 8.1 mph - N/A   Clear
5:01 PM 57.2 °F - 26.6 °F 31% 30.20 in 10.0 mi WSW 9.2 mph - N/A   Clear
5:22 PM 57.2 °F - 26.6 °F 31% 30.19 in 10.0 mi SW 10.4 mph - N/A   Clear
6:49 PM 53.6 °F - 32.0 °F 44% 30.19 in 10.0 mi South 4.6 mph - N/A   Clear
7:10 PM 51.8 °F - 32.0 °F 47% 30.19 in 10.0 mi Calm Calm - N/A   Clear
7:31 PM 51.8 °F - 33.8 °F 50% 30.19 in 10.0 mi Calm Calm - N/A   Clear
7:52 PM 51.8 °F - 33.8 °F 50% 30.19 in 10.0 mi Calm Calm - N/A   Clear
8:13 PM 50.0 °F - 33.8 °F 54% 30.19 in 10.0 mi South 3.5 mph - N/A   Clear
9:16 PM 50.0 °F - 33.8 °F 54% 30.20 in 10.0 mi SSW 5.8 mph - N/A   Clear
9:40 PM 48.2 °F - 33.8 °F 58% 30.20 in 10.0 mi SSW 4.6 mph - N/A   Clear
10:01 PM 48.2 °F - 33.8 °F 58% 30.20 in 10.0 mi South 4.6 mph - N/A   Clear
10:22 PM 48.2 °F - 33.8 °F 58% 30.19 in 10.0 mi South 6.9 mph - N/A   Clear
10:43 PM 50.0 °F - 33.8 °F 54% 30.19 in 10.0 mi South 5.8 mph - N/A   Clear
11:04 PM 48.2 °F - 33.8 °F 58% 30.18 in 10.0 mi South 5.8 mph - N/A   Clear
11:25 PM 48.2 °F - 33.8 °F 58% 30.17 in 10.0 mi South 9.2 mph - N/A   Clear
11:46 PM 48.2 °F - 33.8 °F 58% 30.17 in 10.0 mi South 8.1 mph - N/A   Clear